Showing default

COSMOS 2166, 21780

Orbit data source: Space-Track

COSMOS 2166, 21780 is a payload satellite owned by UNKS RF (CIS) in LEO that was launched on Tue, 12 Nov 1991 UTC via a TSIKLON-3 launch vehicle from the Plesetsk Missile And Space Complex (PKMTR). Payload-class satellites include a variety of spacecraft equipped with specific instruments for various scientific and technological missions. These include communications satellites like Starlink; space stations such as the ISS; scientific satellites like the Hubble; Earth observation satellites from companies like Planet Labs, Umbra, and HawkEye 360; GPS; miniature CubeSats for education and research; and military/defense satellites.

Loading next visibility...
Identifier
21780, 1991-077B
Orbit
LEO
Country
Flag of CISCIS
Related business
Manufacturer
NPO PM
Mission
Defense Communications
Bus & Motor
STRELA-3, Unknown motor
Mass
225 kg wet, 225 kg dry
Launch date (UTC)
1991-11-12 (34 years ago)
Launch vehicle
TSIKLON-3
Launch site
Plesetsk Missile And Space Complex (PKMTR)
Object type
Payload
Rocket body
Debris
Shape & HBR
Cyl, 0.8 m
Radar Cross Section
1.257 m², Large (>1 m²)

Expand to show TLE details & history
Last TLE update: 12 hours ago

TLE from 12 hours ago
0 COSMOS 2166
1 21780U 91077B   25259.23205170  .00000040  00000-0  16130-3 0  9993
2 21780  82.5961  60.9952 0004163  68.4680 104.2579 12.63439036560576
Epoch: 2025-09-16T05:34Z
TLE epoch observation values (Epoch: 2025-09-16T05:34:09.266Z)
Latitude
7.09964°
Longitude
161.1085°
Altitude
1,411.676 km
Speed
7.155 km/s
True Right ascension
16h 00m 17s
True Declination
7° 03' 40"
Sunlit
Object was in daylight at epoch
Visualization orbit readout
Latitude
Unknown
Longitude
Unknown
Altitude
Unknown
Speed
Unknown
Apparent Right ascension
Unknown
Apparent Declination
Unknown
Sunlit
N/A
Visualization observer readout
Local Sidereal Time
09:53:44
Azimuth
Unknown
Elevation
Unknown
Doppler factor
Unknown
Orbital elements
Apogee altitude
1,409.341 km
Perigee altitude
1,402.86 km
Semi-major axis
7,784.237 km
Eccentricity
0.00042
Inclination
82.5961°
RAAN
60.9952°
Arg. of periapsis
68.468°
True anomaly
104.30413°
Mean anomaly
104.2579°
Eccentric anomaly
104.28102°
Mean motion
3.16023 °/min
Orbital period
113.92 mins
BSTAR
0.0001613
Loading maneuver chart data...
Computing Atmospheric mass density...
Loading historical data...
Loading historical data...
Loading historical data...
Loading historical data...
Loading historical data...
Loading historical data...
Loading historical data...

Documentation

Showing up to 5 results
|